Content
SEND FEEDBACK

Daily
Averages
Monthly
Summary
United States of America

ROCK HILL, NEW YORK


Home > North America > United States > New York
Elevation: 1260 feet     Latitude: 41 35N     Longitude: 074 37W

WEATHER
 
SELECT A DAY
Number of Records: 454,653;   Date Range: 1/1/95 - 12/18/14
 
SHARE

PRINT THIS DATA

[ ← Previous Day ]
WEATHER ALMANAC - DECEMBER 31, 2013
[ Next Day → ]
[ °C ]   °F
Weather ElementAverageHighLow
Temperature16.3 °F24.8 °F (2:55 pm)10.4 °F (12:35 am)
Dewpoint6.8 °F17.6 °F (2:35 pm)1.4 °F (12:55 am)
Humidity67 %80 % (1:15 pm)49 % (7:15 pm)
Barometer30.05 in30.16 in (11:15 pm)29.95 in (12:35 pm)
Wind Speed6.3 mph19.6 mph (9:15 pm)
Wind Gust28.8 mph (9:15 pm)
Weather ElementAverage
Visibility8.5 mi
Wind DirectionSSW (187 °)

Weather ElementTotal
Precipitation---
Heating Degree Days47.4 (Base 65)
Averaged from 71 records on December 31, 2013
WEATHER CONDITIONS BREAKOUT
WIND DIRECTION BREAKOUT
WEATHER BY HOUR - DECEMBER 31, 2013
[ °C ]   °F
Local TimeTemperatureDewpointHumidityBarometerVisibilityWind DirectionWind SpeedGust SpeedPrecipitationEventsConditions
12:35 AM10.4 °F3.2 °F73 %30.09 in10.0 miNW (310°)5.8 mphClear
12:55 AM10.4 °F1.4 °F67 %30.08 in10.0 miWNW (300°)3.5 mphClear
1:15 AM10.4 °F3.2 °F73 %30.08 in10.0 miCalmClear
1:35 AM10.4 °F3.2 °F73 %30.09 in10.0 miCalmClear
1:55 AM10.4 °F3.2 °F73 %30.09 in10.0 miCalmClear
2:15 AM10.4 °F3.2 °F73 %30.09 in10.0 miCalmMostly Cloudy
2:35 AM12.2 °F3.2 °F67 %30.07 in10.0 miNorth (350°)3.5 mphOvercast
2:55 AM10.4 °F3.2 °F73 %30.08 in10.0 miCalmOvercast
3:15 AM12.2 °F3.2 °F67 %30.07 in10.0 miCalmOvercast
3:35 AM12.2 °F3.2 °F67 %30.06 in10.0 miCalmOvercast
3:55 AM12.2 °F3.2 °F67 %30.06 in10.0 miCalmOvercast
4:15 AM12.2 °F3.2 °F67 %30.05 in10.0 miCalmOvercast
4:35 AM12.2 °F3.2 °F67 %30.05 in10.0 miCalmOvercast
4:55 AM12.2 °F3.2 °F67 %30.04 in10.0 miCalmOvercast
5:15 AM12.2 °F5.0 °F73 %30.04 in10.0 miCalmMostly Cloudy
5:35 AM10.4 °F3.2 °F73 %30.04 in10.0 miWest (260°)3.5 mphPartly Cloudy
5:55 AM10.4 °F3.2 °F73 %30.04 in10.0 miCalmPartly Cloudy
6:15 AM10.4 °F3.2 °F73 %30.04 in10.0 miSSW (210°)3.5 mphPartly Cloudy
6:35 AM10.4 °F3.2 °F73 %30.03 in10.0 miCalmMostly Cloudy
6:55 AM10.4 °F5.0 °F79 %30.04 in10.0 miCalmOvercast
7:15 AM10.4 °F5.0 °F79 %30.04 in10.0 miCalmOvercast
7:35 AM10.4 °F5.0 °F79 %30.04 in10.0 miCalmPartly Cloudy
7:55 AM10.4 °F5.0 °F79 %30.04 in10.0 miCalmClear
8:15 AM12.2 °F6.8 °F79 %30.03 in10.0 miCalmScattered Clouds
8:35 AM12.2 °F5.0 °F73 %30.03 in10.0 miSSE (150°)3.5 mphClear
8:55 AM12.2 °F6.8 °F79 %30.03 in10.0 miSouth (190°)4.6 mphPartly Cloudy
9:15 AM14.0 °F6.8 °F73 %30.03 in6.0 miSouth (170°)4.6 mphClear
9:35 AM14.0 °F5.0 °F67 %30.02 in10.0 miSouth (170°)4.6 mphMostly Cloudy
9:55 AM15.8 °F6.8 °F68 %30.02 in10.0 miSouth (190°)5.8 mphOvercast
10:15 AM17.6 °F6.8 °F63 %30.02 in10.0 miSSW (200°)4.6 mphScattered Clouds
10:35 AM17.6 °F8.6 °F68 %30.02 in10.0 miSW (230°)6.9 mphPartly Cloudy
10:55 AM17.6 °F8.6 °F68 %30.01 in10.0 miSW (220°)4.6 mphPartly Cloudy
11:15 AM19.4 °F10.4 °F68 %30.00 in10.0 miWSW (240°)4.6 mphPartly Cloudy
11:35 AM19.4 °F12.2 °F74 %29.99 in5.0 miSSW (210°)8.1 mphPartly Cloudy
11:55 AM19.4 °F10.4 °F68 %29.97 in5.0 miSouth (190°)4.6 mphMostly Cloudy
12:15 PM19.4 °F12.2 °F74 %29.96 in2.5 miSW (230°)5.8 mphOvercast
12:35 PM21.2 °F12.2 °F68 %29.95 in4.0 miSSW (210°)5.8 mphOvercast
12:55 PM21.2 °F12.2 °F68 %29.95 in2.5 miSW (230°)5.8 mphOvercast
1:15 PM21.2 °F15.8 °F80 %29.95 in1.8 miWest (270°)4.6 mphOvercast
1:35 PM21.2 °F15.8 °F80 %29.95 in1.2 miWSW (240°)6.9 mphOvercast
1:55 PM21.2 °F15.8 °F80 %29.96 in1.2 miSW (230°)4.6 mphOvercast
2:15 PM21.2 °F15.8 °F80 %29.96 in2.0 miSW (230°)8.1 mphOvercast
2:35 PM23.0 °F17.6 °F80 %29.96 in5.0 miWSW (250°)8.1 mphMostly Cloudy
2:55 PM24.8 °F17.6 °F74 %29.96 in5.0 miWSW (250°)9.2 mphMostly Cloudy
3:15 PM23.0 °F17.6 °F80 %29.98 in0.8 miWest (260°)5.8 mphOvercast
3:35 PM23.0 °F17.6 °F80 %29.99 in0.8 miWest (270°)11.5 mph16.1 mphOvercast
3:55 PM23.0 °F17.6 °F80 %30.00 in6.0 miWest (260°)15.0 mph23.0 mphMostly Cloudy
4:15 PM23.0 °F15.8 °F74 %30.01 in8.0 miWest (280°)12.7 mph17.3 mphMostly Cloudy
4:35 PM21.2 °F12.2 °F68 %30.01 in10.0 miWest (280°)12.7 mph23.0 mphPartly Cloudy
4:55 PM21.2 °F12.2 °F68 %30.02 in10.0 miWNW (290°)10.4 mph23.0 mphPartly Cloudy
5:15 PM21.2 °F8.6 °F58 %30.02 in9.0 miWest (280°)16.1 mph25.3 mphClear
5:35 PM21.2 °F6.8 °F54 %30.03 in10.0 miWNW (290°)13.8 mph20.7 mphClear
5:55 PM21.2 °F6.8 °F54 %30.03 in10.0 miWest (280°)15.0 mph21.9 mphClear
6:15 PM19.4 °F6.8 °F58 %30.04 in10.0 miWNW (290°)15.0 mph21.9 mphClear
6:35 PM19.4 °F6.8 °F58 %30.06 in10.0 miWNW (290°)13.8 mph23.0 mphClear
6:55 PM19.4 °F5.0 °F54 %30.07 in10.0 miWest (280°)13.8 mph25.3 mphClear
7:15 PM19.4 °F3.2 °F49 %30.07 in10.0 miWest (280°)17.3 mph27.6 mphClear
7:35 PM19.4 °F3.2 °F49 %30.10 in10.0 miWest (280°)11.5 mph20.7 mphClear
7:55 PM19.4 °F3.2 °F49 %30.10 in10.0 miWNW (290°)16.1 mph25.3 mphClear
8:15 PM17.6 °F1.4 °F49 %30.10 in10.0 miWNW (290°)12.7 mph25.3 mphClear
8:35 PM17.6 °F1.4 °F49 %30.11 in10.0 miWest (270°)9.2 mphClear
8:55 PM17.6 °F1.4 °F49 %30.12 in10.0 miWNW (290°)12.7 mph26.5 mphClear
9:15 PM17.6 °F1.4 °F49 %30.13 in10.0 miWNW (290°)19.6 mph28.8 mphClear
9:35 PM17.6 °F3.2 °F53 %30.14 in10.0 miWNW (290°)10.4 mph20.7 mphMostly Cloudy
9:55 PM17.6 °F3.2 °F53 %30.14 in10.0 miWest (270°)4.6 mphOvercast
10:15 PM17.6 °F3.2 °F53 %30.15 in10.0 miWest (280°)5.8 mphOvercast
10:35 PM17.6 °F3.2 °F53 %30.15 in10.0 miWNW (290°)11.5 mph18.4 mphOvercast
10:55 PM17.6 °F3.2 °F53 %30.15 in10.0 miWNW (290°)9.2 mph17.3 mphOvercast
11:15 PM15.8 °F3.2 °F58 %30.16 in10.0 miWest (260°)4.6 mphOvercast
11:35 PM15.8 °F3.2 °F58 %30.16 in10.0 miWest (260°)6.9 mphOvercast
11:55 PM15.8 °F3.2 °F58 %30.16 in10.0 miWest (270°)6.9 mphOvercast
Hourly data recorded from KMSV, located miles away from Rock Hill, New York







STORIES FROM OUR PARTNERS